When you browse on this site, cookies collect data to enhance your experience and personalize the content and advertising you see.
Visit our Privacy Policy to learn more. By continuing to use the site, you agree to this use of cookies and data.
  • In Czech Republic
  • List of Countries
  • For 7 days
  • Water Temperature
  • Satellite Maps
  • Weather Map
  • Weather Widgets
  • user-avatar
    Login

    Hourly Weather Bissau

    Today, 16 December, Sunday

    Time Temperature Precipitation Wind Pressure Humidity
    00:00 +28°C° 0 mm 5 mps 761 mmHg 13%
    01:00 +28°C° 0 mm 5 mps 761 mmHg 13%
    02:00 +27°C° 0 mm 5 mps 760 mmHg 13%
    03:00 +27°C° 0 mm 5 mps 760 mmHg 13%
    04:00 +27°C° 0 mm 6 mps 760 mmHg 14%
    05:00 +26°C° 0 mm 6 mps 760 mmHg 15%
    06:00 +27°C° 0 mm 6 mps 761 mmHg 14%
    07:00 +29°C° 0 mm 7 mps 761 mmHg 14%
    08:00 +30°C° 0 mm 7 mps 761 mmHg 13%
    09:00 +33°C° 0 mm 7 mps 761 mmHg 12%
    10:00 +36°C° 0 mm 7 mps 761 mmHg 11%
    11:00 +39°C° 0 mm 6 mps 761 mmHg 9%
    12:00 +40°C° 0 mm 6 mps 760 mmHg 9%
    13:00 +41°C° 0 mm 5 mps 759 mmHg 9%
    14:00 +42°C° 0 mm 4 mps 759 mmHg 9%
    15:00 +41°C° 0 mm 4 mps 759 mmHg 11%
    16:00 +39°C° 0 mm 3 mps 759 mmHg 12%
    17:00 +38°C° 0 mm 2 mps 758 mmHg 13%
    18:00 +35°C° 0 mm 3 mps 759 mmHg 14%
    19:00 +33°C° 0 mm 3 mps 759 mmHg 15%
    20:00 +30°C° 0 mm 3 mps 760 mmHg 16%
    21:00 +29°C° 0 mm 3 mps 760 mmHg 15%
    22:00 +28°C° 0 mm 3 mps 760 mmHg 14%
    23:00 +27°C° 0 mm 3 mps 760 mmHg 14%

    Tomorrow, 17 December, Monday

    Time Temperature Precipitation Wind Pressure Humidity
    00:00 +27°C° 0 mm 3 mps 760 mmHg 14%
    01:00 +26°C° 0 mm 3 mps 760 mmHg 13%
    02:00 +25°C° 0 mm 3 mps 760 mmHg 13%
    03:00 +25°C° 0 mm 3 mps 760 mmHg 13%
    04:00 +24°C° 0 mm 3 mps 759 mmHg 13%
    05:00 +24°C° 0 mm 3 mps 759 mmHg 13%
    06:00 +25°C° 0 mm 3 mps 760 mmHg 13%
    07:00 +26°C° 0 mm 3 mps 760 mmHg 12%
    08:00 +27°C° 0 mm 3 mps 760 mmHg 12%
    09:00 +30°C° 0 mm 3 mps 760 mmHg 10%
    10:00 +35°C° 0 mm 3 mps 760 mmHg 9%
    11:00 +38°C° 0 mm 3 mps 760 mmHg 7%
    12:00 +39°C° 0 mm 3 mps 759 mmHg 7%
    13:00 +40°C° 0 mm 2 mps 758 mmHg 7%
    14:00 +41°C° 0 mm 2 mps 757 mmHg 7%
    15:00 +40°C° 0 mm 2 mps 757 mmHg 10%
    16:00 +38°C° 0 mm 2 mps 757 mmHg 12%
    17:00 +37°C° 0 mm 3 mps 757 mmHg 14%
    18:00 +34°C° 0 mm 3 mps 758 mmHg 22%
    19:00 +30°C° 0 mm 3 mps 759 mmHg 30%
    20:00 +28°C° 0 mm 3 mps 759 mmHg 38%
    21:00 +27°C° 0 mm 3 mps 759 mmHg 39%
    22:00 +26°C° 0 mm 2 mps 760 mmHg 40%
    23:00 +26°C° 0 mm 2 mps 760 mmHg 42%

    Day after tomorrow, 18 December, Tuesday

    Time Temperature Precipitation Wind Pressure Humidity
    00:00 +25°C° 0 mm 2 mps 760 mmHg 41%
    01:00 +24°C° 0 mm 2 mps 759 mmHg 40%
    02:00 +24°C° 0 mm 2 mps 759 mmHg 39%
    03:00 +23°C° 0 mm 2 mps 759 mmHg 38%
    04:00 +23°C° 0 mm 2 mps 759 mmHg 38%
    05:00 +21°C° 0 mm 2 mps 759 mmHg 37%
    06:00 +24°C° 0 mm 2 mps 760 mmHg 33%
    07:00 +25°C° 0 mm 3 mps 760 mmHg 29%
    08:00 +27°C° 0 mm 3 mps 761 mmHg 25%
    09:00 +30°C° 0 mm 3 mps 760 mmHg 21%
    10:00 +34°C° 0 mm 3 mps 760 mmHg 16%
    11:00 +37°C° 0 mm 3 mps 760 mmHg 11%
    12:00 +39°C° 0 mm 2 mps 759 mmHg 10%
    13:00 +40°C° 0 mm 2 mps 759 mmHg 10%
    14:00 +41°C° 0 mm 1 mps 758 mmHg 9%
    15:00 +40°C° 0 mm 2 mps 758 mmHg 12%
    16:00 +38°C° 0 mm 2 mps 758 mmHg 15%
    17:00 +36°C° 0 mm 3 mps 758 mmHg 18%
    18:00 +34°C° 0 mm 3 mps 758 mmHg 27%
    19:00 +30°C° 0 mm 3 mps 759 mmHg 36%
    20:00 +27°C° 0 mm 3 mps 759 mmHg 46%
    21:00 +26°C° 0 mm 2 mps 760 mmHg 46%
    22:00 +26°C° 0 mm 2 mps 760 mmHg 47%
    23:00 +25°C° 0 mm 1 mps 760 mmHg 47%

    19 December, Wednesday

    Time Temperature Precipitation Wind Pressure Humidity
    00:00 +25°C° 0 mm 1 mps 760 mmHg 45%
    01:00 +24°C° 0 mm 1 mps 759 mmHg 44%
    02:00 +24°C° 0 mm 1 mps 759 mmHg 42%
    03:00 +23°C° 0 mm 2 mps 759 mmHg 44%
    04:00 +23°C° 0 mm 2 mps 759 mmHg 46%
    05:00 +21°C° 0 mm 2 mps 759 mmHg 48%
    06:00 +24°C° 0 mm 2 mps 760 mmHg 47%
    07:00 +25°C° 0 mm 2 mps 760 mmHg 46%
    08:00 +26°C° 0 mm 2 mps 760 mmHg 44%
    09:00 +30°C° 0 mm 2 mps 760 mmHg 36%
    10:00 +34°C° 0 mm 3 mps 760 mmHg 27%
    11:00 +37°C° 0 mm 3 mps 760 mmHg 19%
    12:00 +38°C° 0 mm 2 mps 759 mmHg 17%
    13:00 +39°C° 0 mm 2 mps 758 mmHg 15%
    14:00 +41°C° 0 mm 2 mps 757 mmHg 13%
    15:00 +39°C° 0 mm 2 mps 757 mmHg 16%
    16:00 +38°C° 0 mm 2 mps 757 mmHg 19%
    17:00 +36°C° 0 mm 2 mps 757 mmHg 22%
    18:00 +34°C° 0 mm 2 mps 758 mmHg 32%
    19:00 +30°C° 0 mm 2 mps 758 mmHg 41%
    20:00 +27°C° 0 mm 2 mps 759 mmHg 51%
    21:00 +27°C° 0 mm 2 mps 759 mmHg 51%
    22:00 +26°C° 0 mm 2 mps 759 mmHg 51%
    23:00 +25°C° 0 mm 2 mps 759 mmHg 51%

    20 December, Thursday

    Time Temperature Precipitation Wind Pressure Humidity
    00:00 +25°C° 0 mm 2 mps 759 mmHg 46%
    01:00 +24°C° 0 mm 2 mps 758 mmHg 42%
    02:00 +24°C° 0 mm 2 mps 758 mmHg 37%
    03:00 +23°C° 0 mm 2 mps 758 mmHg 36%
    04:00 +23°C° 0 mm 2 mps 758 mmHg 34%
    05:00 +23°C° 0 mm 2 mps 758 mmHg 33%
    06:00 +24°C° 0 mm 2 mps 759 mmHg 30%
    07:00 +25°C° 0 mm 3 mps 759 mmHg 27%
    08:00 +27°C° 0 mm 3 mps 760 mmHg 24%
    09:00 +30°C° 0 mm 3 mps 759 mmHg 20%
    10:00 +34°C° 0 mm 3 mps 759 mmHg 16%
    11:00 +38°C° 0 mm 3 mps 759 mmHg 11%
    12:00 +39°C° 0 mm 3 mps 758 mmHg 11%
    13:00 +40°C° 0 mm 2 mps 757 mmHg 10%
    14:00 +41°C° 0 mm 2 mps 756 mmHg 9%
    15:00 +40°C° 0 mm 2 mps 756 mmHg 12%
    16:00 +38°C° 0 mm 3 mps 756 mmHg 16%
    17:00 +37°C° 0 mm 3 mps 756 mmHg 19%
    18:00 +34°C° 0 mm 3 mps 757 mmHg 30%
    19:00 +30°C° 0 mm 3 mps 758 mmHg 40%
    20:00 +27°C° 0 mm 3 mps 758 mmHg 50%
    21:00 +27°C° 0 mm 3 mps 758 mmHg 51%
    22:00 +26°C° 0 mm 2 mps 758 mmHg 52%
    23:00 +25°C° 0 mm 2 mps 759 mmHg 53%

    21 December, Friday

    Time Temperature Precipitation Wind Pressure Humidity
    00:00 +25°C° 0 mm 2 mps 758 mmHg 54%
    01:00 +24°C° 0 mm 2 mps 758 mmHg 56%
    02:00 +24°C° 0 mm 2 mps 758 mmHg 57%
    03:00 +24°C° 0 mm 2 mps 758 mmHg 59%
    04:00 +23°C° 0 mm 1 mps 758 mmHg 60%
    05:00 +23°C° 0 mm 1 mps 758 mmHg 62%
    06:00 +25°C° 0 mm 1 mps 758 mmHg 59%
    07:00 +26°C° 0 mm 1 mps 759 mmHg 56%
    08:00 +28°C° 0 mm 1 mps 759 mmHg 53%
    09:00 +30°C° 0 mm 2 mps 759 mmHg 45%
    10:00 +34°C° 0 mm 2 mps 759 mmHg 37%
    11:00 +37°C° 0 mm 2 mps 759 mmHg 29%
    12:00 +37°C° 0 mm 3 mps 758 mmHg 28%
    13:00 +38°C° 0 mm 3 mps 757 mmHg 27%
    14:00 +39°C° 0 mm 3 mps 756 mmHg 26%
    15:00 +37°C° 0 mm 4 mps 756 mmHg 33%
    16:00 +35°C° 0 mm 4 mps 756 mmHg 40%
    17:00 +33°C° 0 mm 4 mps 756 mmHg 47%
    18:00 +32°C° 0 mm 4 mps 757 mmHg 55%
    19:00 +29°C° 0 mm 4 mps 758 mmHg 63%
    20:00 +27°C° 0 mm 3 mps 758 mmHg 70%
    21:00 +27°C° 0 mm 3 mps 758 mmHg 72%
    22:00 +26°C° 0 mm 3 mps 759 mmHg 74%
    23:00 +26°C° 0 mm 2 mps 759 mmHg 76%
    Show more